Notices

What's New in latest Release from April 7th, 2021:

- Updated Glossary, including Speed of Maximum Gust, and Total Hourly Precipitation

- Updated national and regional climate services offices contacts and prices information

- Addition of station inventory lists for 1981-2010, 1971-2000, and 1961-1990 Normals.

If you haven't already, please take our survey and provide feedback about our website: https://eccc.sondage-survey.ca/f/LanguageSelection.aspx?s=442ca660-fcf1-47c0-95a9-59707d6fd709

Hourly Data Report for December 08, 2019

CARBERRY CS
MANITOBA
Current Station Operator: ECCC - MSC

49°54'20.900" N
99°21'26.800" W
383.50 m
5010547
71170
WZE

Download Data

Hourly Data (December 2019)
Hourly Data Report for December 8, 2019
TIME
LST
Temp Definition
°C
Dew Point Definition
°C
Rel Hum Definition
%
Precip. Amount Definition
mm

Wind Dir Definition
10's deg

Wind Spd Definition
km/h
Visibility Definition
km
Stn Press Definition
kPa
Hmdx Definition


Wind Chill Definition


Weather Definition


00:00 -10.3 -12.4 85 0.0 1 27   96.40   -19 LegendNANA
01:00 -11.2 -13.9 80 0.0 1 27   96.55   -21 LegendNANA
02:00 -12.6 -15.5 79 0.0 1 28   96.67   -23 LegendNANA
03:00 -14.0 -16.8 79 0.0 35 24   96.81   -24 LegendNANA
04:00 -16.1 -19.1 78 0.0 35 21   96.94   -26 LegendNANA
05:00 -17.6 -20.7 77 0.2 36 19   96.96   -27 LegendNANA
06:00 -18.4 -21.4 77 0.0 36 19   97.10   -28 LegendNANA
07:00 -18.7 -21.9 76 0.0 36 20   97.16   -29 LegendNANA
08:00 -19.6 -23.2 73 0.0 1 18   97.18   -29 LegendNANA
09:00 -19.7 -23.9 69 0.0 2 20   97.22   -30 LegendNANA
10:00 -19.8 -24.6 66 0.0 2 19   97.30   -30 LegendNANA
11:00 -19.9 -24.5 67 0.0 2 19   97.31   -30 LegendNANA
12:00 -19.9 -25.1 63 0.0 2 20   97.29   -30 LegendNANA
13:00 -19.6 -24.4 66 0.0 3 18   97.26   -29 LegendNANA
14:00 -19.7 -24.3 67 0.0 1 14   97.25   -28 LegendNANA
15:00 -19.8 -24.1 68 0.0 1 13   97.24   -28 LegendNANA
16:00 -19.9 -24.2 69 0.0 36 13   97.26   -28 LegendNANA
17:00 -20.1 -24.3 69 0.0 1 12   97.30   -28 LegendNANA
18:00 -20.3 -24.1 71 0.0 36 11   97.34   -28 LegendNANA
19:00 -20.5 -23.9 74 0.0 35 13   97.36   -29 LegendNANA
20:00 -20.9 -24.4 74 0.0 36 9   97.40   -28 LegendNANA
21:00 -21.3 -24.8 74 0.0 2 5   97.35   -26 LegendNANA
22:00 -21.3 -25.5 69 0.0 3 5   97.31   -26 LegendNANA
23:00 -22.4 -26.2 72 0.0 35 5   97.29   -27 LegendNANA

Notes on Data Quality.

Legend

  • E = Estimated
  • M = Missing
  • NA = Not Available*
  • [empty] = Indicates an unobserved value
Date modified: